Regional Weather Roundup
Issued by NWS Sioux Falls, SD

Home | Current Version | Previous Version | Text Only | Print | Product List | Glossary On
Versions: 1 2 3 4 5 6 7 8 9 10 11 12 13 14 15 16 17 18 19 20 21 22 23 24 25 26 27 28 29 30 31 32 33 34 35 36 37 38 39 40 41 42 43 44 45 46 47 48 49 50
000
ASUS43 KFSD 212010
RWRFSD

WEATHER ROUNDUP FOR SE SOUTH DAKOTA/SW MINNESOTA/NW IOWA
NATIONAL WEATHER SERVICE SIOUX FALLS SD
200 PM CST TUE FEB 21 2017

NOTE: "FAIR" INDICATES FEW OR NO CLOUDS BELOW 12,000 FEET WITH NO
SIGNIFICANT WEATHER AND OR OBSTRUCTIONS TO VISIBILITY.


SDZ038>040-050-052>070-212100-
SOUTHEAST SOUTH DAKOTA

CITY           SKY/WX    TMP DP  RH WIND       PRES   REMARKS
BROOKINGS      SUNNY     57  39  51 SW10      29.72F
CHAMBERLAIN    SUNNY     69  38  31 CALM      29.71F
HURON          SUNNY     67  37  33 NW7       29.70F
MADISON        FAIR      59  37  44 W10       29.72F
MITCHELL       SUNNY     67  36  31 W7        29.72F
SIOUX FALLS    MOSUNNY   65  38  36 SW10G22   29.73F
WINNER         FAIR      75  35  23 W22G29    29.71F
YANKTON        SUNNY     72  34  25 S15G21    29.72F
$$

MNZ071-072-080-081-089-090-097-098-212100-
SOUTHWEST MINNESOTA

CITY           SKY/WX    TMP DP  RH WIND       PRES   REMARKS
FAIRMONT       SUNNY     62  46  55 S20       29.77F
JACKSON        SUNNY     61  39  44 SW23G31   29.77F
LUVERNE        SUNNY     63  37  39 SW17      29.75F
MARSHALL       MOSUNNY   60  41  49 SW18      29.70F
MONTEVIDEO     CLOUDY    54  45  71 W5        29.71S
PIPESTONE      SUNNY     59  37  44 SW14      29.74F
REDWOOD FALLS  PTSUNNY   61  42  49 SW20      29.70F
TRACY          SUNNY     60  45  56 S21G26    29.71F
WINDOM         SUNNY     63  41  45 SW24G33   29.74F
WORTHINGTON    SUNNY     60  45  57 S22G29    29.75F
$$

IAZ001>003-012>014-020>022-031-032-NEZ013-014-SDZ071-212100-
NORTHWEST IOWA

CITY           SKY/WX    TMP DP  RH WIND       PRES   REMARKS
CHEROKEE       SUNNY     65  40  39 SW20G28   29.80F
DENISON        SUNNY     64  43  45 S17G24    29.84F
ESTHERVILLE    SUNNY     61  45  55 S21G31    29.77F
LE MARS        SUNNY     66  43  42 S21G28    29.77F
ORANGE CITY    SUNNY     64  45  48 S18G26    29.76F
SHELDON        SUNNY     63  46  55 S23G30    29.74F
SIOUX CITY     SUNNY     70  42  36 S22       29.79F
SPENCER        CLOUDY    65  41  41 S24G36    29.78F
STORM LAKE     SUNNY     63  41  45 SW28      29.82F
$$

ABBREVIATIONS USED IN REMARKS
   TC - TEMPERATURE IN CELSIUS
  WCI - WIND CHILL INDEX
   HX - HEAT INDEX
  VSB - VISIBILITY





USA.gov is the U.S. government's official web portal to all federal, state and local government web resources and services.